Orangeburg, SC

5:14 AM EST on December 13, 2017 (GMT -0500)
Orangeburg Municipal

Weather History for KOGB - February, 2014

Change the Weather History Date:

Saturday, February 15, 2014

  Actual Average Record
Temperature  
Mean Temperature 48 °F 50 °F  
Max Temperature 55 °F 61 °F 82 °F (1989)
Min Temperature 40 °F 38 °F 20 °F (1968)
Degree Days  
Heating Degree Days 17 16  
Month to date heating degree days 228 252  
Since 1 July heating degree days 1725 1749  
Cooling Degree Days 0 0  
Month to date cooling degree days 0 0  
Year to date cooling degree days 0 1  
Moisture  
Dew Point 34 °F    
Average Humidity 61    
Maximum Humidity 86    
Minimum Humidity 32    
Precipitation  
Precipitation 0.12 in 0.13 in 1.15 in (1953)
Month to date precipitation 2.42 1.64  
Year to date precipitation 4.58 5.62  
Sea Level Pressure  
Sea Level Pressure 29.81 in    
Wind  
Wind Speed 13 mph (West)    
Max Wind Speed 25 mph    
Max Gust Speed 36 mph    
Visibility 10 miles    
Events Rain    
T = Trace of Precipitation, MM = Missing Value Source: NWS Daily Summary

Daily Weather History Graph

Daily Weather History Graph

Search for Another Location

Airport or City:

Trip Planner

Search our weather history database for the weather conditions in past years. The results will help you decide how hot, cold, wet, or windy it might be!

Date:

Astronomy

Feb. 15, 2014 Rise Set
Actual Time 7:07 AM EST 6:08 PM EST
Civil Twilight 6:42 AM EST 6:33 PM EST
Nautical Twilight 6:12 AM EST 7:02 PM EST
Astronomical Twilight 5:44 AM EST 7:31 PM EST
Moon 7:01 PM EST (2/15) 7:09 AM EST (2/15)
Length of Visible Light 11h 51m
Length of Day
11h 00m
Full, 100% of the Moon is Illuminated
Feb 15
Full
Feb 22
Last Quarter
Mar 1
New
Mar 8
First Quarter
Mar 16
Full

Hourly Weather History & Observations

Time (EST) Temp. Windchill Dew Point Humidity Pressure Visibility Wind Dir Wind Speed Gust Speed Precip Events Conditions
12:53 AM 50.0 °F - 37.0 °F 61% 29.71 in 10.0 mi SSW 9.2 mph - N/A   Scattered Clouds
1:53 AM 48.9 °F - 37.0 °F 64% 29.67 in 10.0 mi South 6.9 mph - N/A   Mostly Cloudy
2:53 AM 46.9 °F - 41.0 °F 80% 29.63 in 9.0 mi South 5.8 mph - 0.03 in Rain Light Rain
3:42 AM 46.9 °F - 43.0 °F 86% 29.60 in 10.0 mi South 10.4 mph - 0.01 in Rain Light Rain
3:53 AM 46.9 °F - 43.0 °F 86% 29.60 in 10.0 mi South 9.2 mph - 0.01 in Rain Light Rain
4:10 AM 46.9 °F - 44.1 °F 90% 29.60 in 7.0 mi SSW 11.5 mph - 0.01 in Rain Light Rain
4:29 AM 48.0 °F - 45.0 °F 89% 29.60 in 7.0 mi SW 10.4 mph - 0.03 in Rain Light Rain
4:38 AM 48.0 °F - 45.0 °F 89% 29.62 in 5.0 mi West 11.5 mph - 0.06 in Rain Light Rain
4:53 AM 48.0 °F - 44.1 °F 86% 29.63 in 9.0 mi WNW 12.7 mph 23.0 mph 0.08 in Rain Light Rain
5:04 AM 48.0 °F - 43.0 °F 83% 29.63 in 10.0 mi West 13.8 mph - 0.00 in Rain Light Rain
5:53 AM 46.9 °F - 42.1 °F 83% 29.65 in 10.0 mi West 12.7 mph 21.9 mph 0.00 in   Mostly Cloudy
6:53 AM 46.9 °F - 41.0 °F 80% 29.68 in 10.0 mi West 16.1 mph 24.2 mph N/A   Overcast
7:53 AM 46.0 °F 39.3 °F 39.0 °F 76% 29.72 in 10.0 mi West 16.1 mph 27.6 mph N/A   Overcast
8:53 AM 46.0 °F 39.3 °F 37.9 °F 73% 29.77 in 10.0 mi WNW 16.1 mph 28.8 mph N/A   Overcast
9:34 AM 48.0 °F - 36.0 °F 63% 29.80 in 10.0 mi WNW 18.4 mph 31.1 mph N/A   Scattered Clouds
9:53 AM 48.0 °F - 34.0 °F 58% 29.81 in 10.0 mi WNW 23.0 mph 35.7 mph N/A   Partly Cloudy
10:53 AM 50.0 °F - 34.0 °F 54% 29.83 in 10.0 mi West 16.1 mph 28.8 mph N/A   Partly Cloudy
11:53 AM 52.0 °F - 33.1 °F 49% 29.86 in 10.0 mi West 23.0 mph 29.9 mph N/A   Partly Cloudy
12:53 PM 54.0 °F - 30.0 °F 40% 29.88 in 10.0 mi NW 18.4 mph 27.6 mph N/A   Clear
1:53 PM 53.1 °F - 28.9 °F 40% 29.88 in 10.0 mi West 18.4 mph 26.5 mph N/A   Partly Cloudy
2:53 PM 54.0 °F - 25.0 °F 33% 29.92 in 10.0 mi WNW 16.1 mph 27.6 mph N/A   Clear
3:53 PM 54.0 °F - 27.0 °F 35% 29.95 in 10.0 mi West 19.6 mph 25.3 mph 0.00 in   Clear
4:53 PM 54.0 °F - 24.1 °F 31% 29.98 in 10.0 mi WNW 15.0 mph - N/A   Clear
5:53 PM 51.1 °F - 23.0 °F 33% 30.01 in 10.0 mi WNW 9.2 mph - N/A   Clear
6:53 PM 48.0 °F - 24.1 °F 39% 30.03 in 10.0 mi WNW 3.5 mph - N/A   Clear
7:53 PM 45.0 °F 41.8 °F 26.1 °F 48% 30.04 in 10.0 mi West 5.8 mph - N/A   Clear
8:53 PM 43.0 °F 40.3 °F 25.0 °F 49% 30.08 in 10.0 mi West 4.6 mph - N/A   Clear
9:53 PM 41.0 °F 37.1 °F 25.0 °F 53% 30.07 in 10.0 mi WSW 5.8 mph - N/A   Clear
10:53 PM 42.1 °F 36.6 °F 23.0 °F 47% 30.09 in 10.0 mi West 9.2 mph - N/A   Clear
11:53 PM 42.1 °F 37.1 °F 21.0 °F 43% 30.08 in 10.0 mi WNW 8.1 mph - N/A   Overcast